Regional Weather Roundup
Issued by NWS

Home | Current Version | Previous Version | Text Only | Print | Product List | Glossary On
Versions: 1 2 3 4 5 6 7 8 9 10 11 12 13 14 15 16 17 18 19 20 21 22 23 24 25 26 27
000
ASUS46 KPQR 170610
RWROR

OREGON REGIONAL WEATHER ROUNDUP
NATIONAL WEATHER SERVICE PORTLAND OR
1000 PM PST MON JAN 16 2017

NOTE: "FAIR" INDICATES FEW OR NO CLOUDS BELOW 12,000 FEET WITH
NO SIGNIFICANT WEATHER AND/OR OBSTRUCTIONS TO VISIBILITY.

ORZ001>013-170700-
NORTHWEST OREGON


CITY           SKY/WX    TMP DP  RH WIND       PRES   REMARKS
ASTORIA        PTCLDY    41  27  57 E6        29.93F
6HR MIN TEMP:  40; 6HR MAX TEMP:  47;

NEWPORT        PTCLDY    37  32  81 E8        30.03F WCI  31
PORTLAND       CLOUDY    25  15  66 SE16      30.09F WCI  12
6HR MIN TEMP:  25; 6HR MAX TEMP:  28;

VANCOUVER WA   CLOUDY    26  16  65 S6        30.10F WCI  19
6HR MIN TEMP:  26; 6HR MAX TEMP:  29;

SCAPPOOSE      CLOUDY    28  18  66 S9        30.09F WCI  19
6HR MIN TEMP:  28; 6HR MAX TEMP:  31;

HILLSBORO      CLOUDY    30  21  69 CALM      30.08F
6HR MIN TEMP:  25; 6HR MAX TEMP:  32;

AURORA         CLOUDY    31  20  63 NE3       30.08F
6HR MIN TEMP:  30; 6HR MAX TEMP:  36;

MCMINNVILLE    PTCLDY    28  23  81 CALM      30.09F
6HR MIN TEMP:  25; 6HR MAX TEMP:  33;

SALEM          CLOUDY    31  24  75 NW3       30.07F
6HR MIN TEMP:  28; 6HR MAX TEMP:  37;

CORVALLIS        N/A     28  27  93 CALM      30.07F
EUGENE         PTCLDY    28  26  92 CALM      30.07F
6HR MIN TEMP:  28; 6HR MAX TEMP:  40;

$$

ORZ021-028-170700-
SOUTHWEST OREGON


CITY           SKY/WX    TMP DP  RH WIND       PRES   REMARKS
NORTH BEND     PTCLDY    43  41  93 SE7       30.04F
6HR MIN TEMP:  43; 6HR MAX TEMP:  55;

BROOKINGS      PTCLDY    44  38  79 E5        30.09S
ROSEBURG       PTCLDY    38  36  92 CALM      30.07F FOG
6HR MIN TEMP:  37; 6HR MAX TEMP:  52;

SEXTON SUMMIT  PTCLDY    44  17  33 S12       30.06F
6HR MIN TEMP:  43; 6HR MAX TEMP:  49;

MEDFORD        CLEAR     33  31  92 CALM      30.12S
6HR MIN TEMP:  32; 6HR MAX TEMP:  48;

$$

ORZ014>016-041-170700-
COLUMBIA GORGE


CITY           SKY/WX    TMP DP  RH WIND       PRES   REMARKS
TROUTDALE      CLOUDY    24  14  65 E33G47    30.09F WCI   6
6HR MIN TEMP:  24; 6HR MAX TEMP:  26;

THE DALLES     CLOUDY    13   8  81 E6        30.39F WCI   4
6HR MIN TEMP:  11; 6HR MAX TEMP:  17;

$$

ORZ029>031-041-044-049-050-061>064-502-503-505>511-170700-
EASTERN OREGON


CITY           SKY/WX    TMP DP  RH WIND       PRES   REMARKS
REDMOND        CLEAR      8   2  76 CALM      30.11F
6HR MIN TEMP:   6; 6HR MAX TEMP:  22;

BEND           CLEAR     25  18  74 SE8       30.11F WCI  16
PRINEVILLE     CLEAR     28  18  64 S8        30.12F WCI  20
KLAMATH FALLS  CLEAR     22  18  85 CALM      30.16F
6HR MIN TEMP:  16; 6HR MAX TEMP:  32;

LAKEVIEW       CLEAR     10   7  85 N6        30.19F WCI   1
HERMISTON      CLEAR      3   0  87 CALM      30.36S
6HR MIN TEMP:   1; 6HR MAX TEMP:  13;

PENDLETON      CLEAR      2   1  96 NE5       30.25F FOG     WCI  -8
6HR MIN TEMP:   1; 6HR MAX TEMP:   8;

JOHN DAY       CLEAR     30  20  68 NE9       30.17F WCI  21
MEACHAM        PTCLDY    18   9  68 CALM      30.14F
6HR MIN TEMP:  16; 6HR MAX TEMP:  22;

LA GRANDE      PTCLDY    18   9  68 S25G31    30.26F WCI  -1
6HR MIN TEMP:  10; 6HR MAX TEMP:  19;

BAKER CITY     PTCLDY    -9 -13  83 SE6       30.33S WCI -22
6HR MIN TEMP: -10; 6HR MAX TEMP:   3;

BURNS          MOCLDY    -6  -9  86 CALM      30.25S
6HR MIN TEMP:  -6; 6HR MAX TEMP:  12;

ROME             N/A      5   1  83 E8        30.26R WCI  -8
6HR MIN TEMP:   4; 6HR MAX TEMP:  21;

ONTARIO        PTCLDY    -1  -5  82 NW3       30.52R
6HR MIN TEMP:  -5; 6HR MAX TEMP:   5;

$$




USA.gov is the U.S. government's official web portal to all federal, state and local government web resources and services.